Miscellaneous Local Product
Issued by NWS Hastings, NE

Home | Current Version | Previous Version | Graphics & Text | Print | Product List | Glossary On
Versions: 1 2 3 4 5 6 7 8 9 10 11 12 13 14 15 16 17 18 19 20 21 22 23 24 25 26 27 28 29 30 31 32 33 34 35 36 37 38 39 40 41 42 43 44 45 46 47 48 49 50
000
AXUS43 KGID 241702
MISGRI

GID CWA HOURLY WEATHER ROUNDUP
NATIONAL WEATHER SERVICE HASTINGS NE
1200 PM CDT FRI MAR 24 2017

NOTE: "FAIR" INDICATES FEW OR NO CLOUDS BELOW 12,000 FEET WITH NO
SIGNIFICANT WEATHER AND/OR OBSTRUCTIONS TO VISIBILITY.

...SOUTH CENTRAL NEBRASKA...

CITY           SKY/WX    TMP DP  RH WIND       PRES   REMARKS
GRAND ISLAND   CLOUDY    41  40  96 N24G30    29.95R
HASTINGS       CLOUDY    43  40  89 N18G28    29.93R
KEARNEY        CLOUDY    39  36  87 N24       29.94R WCI  28
ORD            LGT RAIN  40  36  86 N21       29.98R FOG     WCI  30
YORK           CLOUDY    43  43 100 NE25      29.92R FOG
AURORA         CLOUDY    42  40  95 N23G29    29.93R
LEXINGTON      CLOUDY    41  38  89 NE29G38   29.90R
HOLDREGE       CLOUDY    41  38  91 N28G35    29.91R
HEBRON         CLOUDY    48  46  90 N16G23    29.89R

...NEBRASKA PANHANDLE...

CITY           SKY/WX    TMP DP  RH WIND       PRES   REMARKS
CHADRON        PTSUNNY   50  38  63 N10       30.12S
ALLIANCE       NOT AVBL
SCOTTSBLUFF    CLOUDY    51  35  54 N18G28    30.10R
SIDNEY         CLOUDY    43  36  76 N28G39    30.06R

...WESTERN AND NORTH CENTRAL NEBRASKA...

CITY           SKY/WX    TMP DP  RH WIND       PRES   REMARKS
VALENTINE      MOSUNNY   48  35  60 N22G29    30.06S
AINSWORTH      CLOUDY    43  40  89 N17       30.05R
ONEILL         CLOUDY    38  37  97 N14       30.04R WCI  30
BROKEN BOW     RAIN      40  38  93 N29G38    29.96S WCI  29
IMPERIAL       CLOUDY    43  40  89 N29G41    29.94R
NORTH PLATTE   CLOUDY    43  39  86 N30G43    29.93R
MCCOOK         LGT RAIN  42  41  96 NE20      29.88R FOG

...EASTERN NEBRASKA...

CITY           SKY/WX    TMP DP  RH WIND       PRES   REMARKS
NORFOLK        LGT RAIN  39  36  89 N21       29.98R FOG     WCI  29
SO SIOUX CITY  CLOUDY    42  39  89 N14       29.98R
TEKAMAH        LGT RAIN  44  42  93 N16       29.96R FOG
COLUMBUS       CLOUDY    43  37  81 N14       29.97R
ALBION         CLOUDY    40  38  90 N14G25    29.97R FOG     WCI  33
OMAHA EPPLEY   CLOUDY    48  43  82 N15       29.92R
OFFUTT AFB     CLOUDY    50  46  87 N10G17    29.90R
MILLARD        CLOUDY    50  47  88 N7        29.92R
LINCOLN        CLOUDY    48  44  86 N17G24    29.92R
NEBRASKA CITY  CLOUDY    55  54  97 N10       29.87R FOG
BEATRICE       CLOUDY    52  49  90 NE22G28   29.87R FOG
FALLS CITY     CLOUDY    59  58  96 SE9       29.85S

...NORTHERN KANSAS...

CITY           SKY/WX    TMP DP  RH WIND       PRES   REMARKS
GOODLAND       LGT RAIN  40  40 100 N24G32    29.89R FOG     WCI  29
HILL CITY      CLOUDY    48  45  89 NE22G36   29.84R FOG
NORTON         CLOUDY    41  36  81 N21G33    29.85R
PHILLIPSBURG   CLOUDY    48  45  87 N29G38    29.83F
HAYS             N/A     65  33  30 E7        29.77R
RUSSELL        SUNNY     69  33  26 S17G29    29.74R
CONCORDIA      CLOUDY    65  55  70 N18       29.80R
SALINA         PTSUNNY   75  44  33 S18       29.77R
TOPEKA         LGT RAIN  68  56  65 S10       29.83R



USA.gov is the U.S. government's official web portal to all federal, state and local government web resources and services.